Probability
0 0 0 0 0 0 0 0 0 0 0 0 0 0 0 0 0 0 0 0 0 0 0 0 0 0 0 0 0 0 0 0 0 0 0 0 0 0 0 0 0 0 0 0
0 0 0 0 0 0 0 0 0 0 0 0 0 0 0 0 0 0 0 0 0 0 0 0 0 0 0 0 0 0 0 0 0 0 0 0 0 0 0 0 0 0 0 0
0 0 0 0 0 0 0 0 0 0 0 0 0 0 0 0 0 0 0 0 0 0 0 0 0 0 0 0 0 0 0 0 0 0 0 0 0 0 0 0 0 0 0 0
0 0 0 0 0 0 0 0 0 0 0 0 0 0 0 0 0 0 0 0 0 0 0 0 0 0 0 0 0 0 0 0 0 0 0 0 0 0 0 0 0 0 0 0
0 0 0 0 0 0 0 0 0 0 0 0 0 0 0 0 0 0 0 0 0 0 0 0 0 0 0 0 0 0 0 0 0 0 0 0 0 0 0 0 0 0 0 0
0 0 0 0 0 0 0 0 0 0 0 0 0 0 0 0 0 0 0 0 0 0 0 0 0 0 0 0 0 0 0 0 0 0 0 0 0 0 0 0 0 0 0 0
0 0 0 0 0 0 0 0 0 0 0 0 0 0 0 0 0 0 0 0 0 0 0 0 0 0 0 0 0 0 0 0 0 0 0 0 0 0 0 0 0 0 0 0
0 0 0 0 0 0 0 0 0 0 0 0 0 0 0 0 0 0 0 0 0 0 0 0 0 0 0 0 0 0 0 0 0 0 0 0 0 0 0 0 0 0 0 0
0 0 0 0 0 0 0 0 0 0 0 0 0 0 0 0 0 0 0 0 0 0 0 0 0 0 0 0 0 0 0 0 0 0 0 0 0 0 0 0 0 0 0 0
0 0 0 0 0 0 0 0 0 0 0 0 0 0 0 0 0 0 0 0 0 0 0 0 0 0 0 0 0 0 0 0 0 0 0 0 0 0 0 0 0 0 0 0
0 0 0 0 0 0 0 0 0 0 0 0 0 0 0 0 0 0 0 0 0 0 0 0 0 0 0 0 0 0 0 0 0 0 0 0 0 0 0 0 0 0 0 0
0 0 0 0 0 0 0 0 0 0 0 0 0 0 0 0 0 0 0 0 0 0 0 0 0 0 0 0 0 0 0 0 0 0 0 0 0 0 0 0 0 0 0 0
0 0 0 0 0 0 0 0 0 0 0 0 0 0 0 0 0 0 0 0 0 0 0 0 0 0 0 0 0 0 0 0 0 0 0 0 0 0 0 0 0 0 0 0
0 0 0 0 0 0 0 0 0 0 0 0 0 0 0 0 0 0 0 0 0 0 0 0 0 0 0 0 0 0 0 0 0 0 0 0 0 0 0 0 0 0 0 0
0 0 0 0 0 0 0 0 0 0 0 0 0 0 0 0 0 0 0 0 0 0 0 0 0 0 0 0 0 0 0 0 0 0 0 0 0 0 0 0 0 0 0 0
0 0 0 0 0 0 0 0 0 0 0 0 0 0 0 0 0 0 0 0 0 0 0 0 0 0 0 0 0 0 0 0 0 0 0 0 0 0 0 0 0 0 0 0
0 0 0 0 0 0 0 0 0 0 0 0 0 0 0 0 0 0 0 0 0 0 0 0 0 0 0 0 0 0 0 0 0 0 0 0 0 0 0 0 0 0 0 0
0 0 0 0 0 0 0 0 0 0 0 0 0 0 0 0 0 0 0 0 0 0 0 0 0 0 0 0 0 0 0 0 0 0 0 0 0 0 0 0 0 0 0 0
0 0 0 0 0 0 0 0 0 0 0 0 0 0 0 0 0 0 0 0 0 0 0 0 0 0 0 0 0 0 0 0 0 0 0 0 0 0 0 0 0 0 0 0
0 0 0 0 0 0 0 0 0 0 0 0 0 0 0 0 0 0 0 0 0 0 0 0 0 0 0 0 0 0 0 0 0 0 0 0 0 0 0 0 0 0 0 0
0 0 0 0 0 0 0 0 0 0 0 0 0 0 0 0 0 0 0 0 0 0 0 0 0 0 0 0 0 0 0 0 0 0 0 0 0 0 0 0 0 0 0 0
0 0 0 0 0 0 0 0 0 0 0 0 0 0 0 0 0 0 0 0 0 0 0 0 0 0 0 0 0 0 0 0 0 0 0 0 0 0 0 0 0 0 0 0
0 0 0 0 0 0 0 0 0 0 0 0 0 0 0 0 0 0 0 0 0 0 0 0 0 0 0 0 0 0 0 0 0 0 0 0 0 0 0 0 0 0 0 0
0 0 0 0 0 0 0 0 0 0 0 0 0 0 0 0 0 0 0 0 0 0 0 0 0 0 0 0 0 0 0 0 0 0 0 0 0 0 0 0 0 0 0 0
0 0 0 0 0 0 0 0 0 0 0 0 0 0 0 0 0 0 0 0 0 0 0 0 0 0 0 0 0 0 0 0 0 0 0 0 0 0 0 0 0 0 0 0
0 0 0 0 0 0 0 0 0 0 0 0 0 0 0 0 0 0 0 0 0 0 0 0 0 0 0 0 0 0 0 0 0 0 0 0 0 0 0 0 0 0 0 0
Wind_Speed
8 5 7 8 9 7 6 7 9 8 1 2 6 9 8 6 6 6 6 7 9 8 7 6 7 7 7 7 8 7 6 5 4 3 2 2 2 1 1 1 1 1 2 2
7 10 11 8 4 3 5 8 10 8 2 2 6 10 9 6 6 6 7 9 10 9 7 7 7 6 7 7 7 7 6 6 5 3 3 2 2 1 1 0 1 1 2 2
13 6 2 4 5 5 7 8 9 8 5 5 6 9 8 5 4 4 7 10 10 10 9 8 7 7 7 6 6 6 6 6 5 4 3 2 2 1 1 0 0 1 1 2
11 9 5 4 6 6 8 5 5 5 4 5 5 5 4 8 6 6 7 9 10 10 9 8 8 7 6 6 6 7 7 6 5 4 4 3 2 1 1 1 1 1 1 1
7 6 6 7 8 7 3 2 3 5 5 7 7 7 6 10 9 10 9 9 10 10 9 8 8 8 7 6 5 6 6 6 5 4 4 3 2 1 1 2 1 1 1 1
9 3 6 4 1 1 2 1 4 4 3 7 10 9 6 9 13 14 12 11 11 10 10 9 8 8 6 5 5 5 6 5 4 4 4 4 3 2 2 2 2 2 1 1
9 9 5 3 3 1 3 3 3 4 5 9 5 5 6 6 10 15 16 13 12 11 10 9 9 8 7 6 5 5 6 5 4 4 3 3 3 2 1 1 2 2 2 2
9 10 13 9 9 7 8 7 6 4 3 1 2 5 2 5 4 11 14 14 13 11 10 10 9 8 8 7 6 5 5 5 4 3 2 2 2 1 1 1 1 2 2 2
7 5 3 6 6 6 7 8 6 5 6 4 5 4 3 3 3 5 12 13 13 12 11 10 9 8 8 7 6 5 5 5 3 3 2 2 2 1 1 2 2 2 2 3
6 3 4 4 1 4 4 3 4 5 4 5 7 7 7 7 7 6 9 12 12 11 11 10 9 8 7 6 5 5 5 4 3 2 2 1 1 1 1 2 3 4 4 4
7 5 5 4 8 9 7 4 5 4 5 3 4 2 3 8 9 9 9 10 11 11 11 10 9 8 8 7 6 5 4 4 3 2 1 1 1 1 2 3 4 4 4 5
7 4 5 6 4 2 8 9 8 5 5 4 2 3 2 5 6 7 7 8 9 10 10 9 9 8 7 7 6 5 4 4 2 1 1 1 2 2 3 4 4 4 5 5
8 5 4 3 2 3 5 8 9 7 4 4 4 4 1 3 5 5 6 7 7 9 9 9 8 7 7 6 5 5 4 3 2 1 1 2 3 3 4 4 5 5 6 6
4 4 7 6 1 7 6 9 9 7 5 6 8 6 5 6 7 7 7 8 8 8 8 8 7 7 6 6 5 4 4 3 2 0 2 3 3 3 4 5 5 6 6 7
2 4 7 6 0 2 5 8 11 11 10 8 8 8 5 5 6 7 8 8 9 9 8 7 7 6 6 5 4 4 3 2 1 1 2 3 4 4 4 5 6 7 7 8
4 3 4 5 3 2 5 6 8 11 11 12 11 12 5 1 4 6 7 9 9 9 8 8 7 7 6 5 4 3 2 1 1 2 3 4 4 4 5 6 6 7 8 8
6 4 3 4 3 1 7 10 11 10 9 8 11 9 0 2 4 5 6 7 8 9 8 8 7 6 5 5 4 2 1 1 1 3 4 4 5 5 6 6 7 8 8 8
6 5 3 3 3 8 7 2 5 8 10 9 7 4 3 4 4 3 4 7 8 9 8 7 6 5 5 4 3 1 1 2 3 4 5 5 5 6 6 7 8 8 8 8
1 4 4 3 5 7 5 4 5 5 5 5 5 2 6 8 6 3 4 6 8 8 7 7 6 5 4 3 2 1 2 3 4 5 5 5 5 6 7 8 8 8 8 8
1 1 3 4 4 7 2 2 3 3 5 2 2 4 8 7 4 3 5 9 9 9 7 6 5 4 3 2 2 1 3 4 5 5 5 5 5 6 8 8 9 8 8 9
4 4 5 6 6 7 2 4 4 5 5 1 3 5 7 5 3 6 9 8 8 8 7 5 4 2 2 1 1 2 4 5 6 5 5 6 6 7 8 8 7 8 8 9
10 8 8 6 7 9 6 6 6 4 3 2 3 5 7 7 8 8 8 7 7 6 5 4 2 1 1 1 2 4 5 6 5 5 6 7 7 7 7 8 8 8 8 9
9 9 6 8 7 2 7 5 3 4 4 3 4 6 9 8 7 7 6 6 5 5 4 3 2 1 2 3 3 5 6 6 6 6 7 7 8 7 7 8 8 8 7 7
4 3 1 2 3 5 5 4 3 3 4 5 6 7 8 7 8 6 6 5 4 4 3 2 1 2 3 4 4 5 6 6 6 7 7 7 7 8 7 6 6 6 6 7
5 5 3 3 2 4 3 4 5 5 6 7 7 7 7 8 7 6 5 4 3 3 2 1 2 3 5 5 5 6 6 6 7 7 7 7 7 8 8 7 6 8 7 9
3 5 5 3 3 5 4 5 6 7 6 7 8 6 6 6 6 5 4 3 3 2 1 1 3 4 5 6 6 7 6 6 7 7 7 6 6 6 7 8 9 12 15 21
Wind_Direction
191 222 234 240 237 261 307 312 302 302 288 206 251 262 255 224 194 182 165 141 123 115 111 102 98 91 85 87 96 103 108 108 106 102 109 117 136 154 150 168 214 233 230 234
216 225 244 259 289 322 298 285 283 286 247 203 264 268 255 219 189 178 163 144 134 130 123 113 103 97 95 95 98 102 103 101 95 98 101 104 108 107 108 129 196 245 243 236
231 226 200 232 245 253 259 258 268 283 313 259 258 277 237 175 151 160 155 143 140 143 138 127 111 99 92 91 97 100 99 96 95 97 93 80 67 49 66 355 246 251 244 246
237 235 201 223 246 243 262 273 283 291 295 278 219 274 218 161 162 173 164 149 144 140 135 131 123 113 105 102 99 100 101 98 98 98 95 104 105 104 136 142 186 246 214 216
226 196 190 224 240 242 249 30 312 281 269 274 263 257 250 156 178 185 178 160 147 143 139 134 128 125 117 111 109 110 106 102 99 96 96 86 68 49 41 28 24 349 312 190
247 207 187 213 196 286 112 204 257 254 255 259 235 222 251 185 191 180 178 166 153 147 141 135 130 126 122 121 118 118 113 109 104 97 94 87 73 40 28 15 8 343 328 318
236 229 196 151 144 165 174 203 239 216 216 242 222 207 251 169 174 173 173 166 157 152 150 149 149 146 142 142 138 129 120 115 105 94 87 91 85 52 39 20 355 336 328 324
219 227 198 184 193 183 196 211 226 249 242 242 183 227 241 83 106 157 161 160 158 160 160 160 160 153 150 151 147 134 123 115 104 96 85 84 85 68 31 7 332 313 300 293
225 218 134 161 189 212 202 215 244 296 303 285 247 201 116 96 90 146 157 161 166 167 163 161 159 155 153 153 149 138 129 119 110 100 83 59 51 43 357 326 310 295 287 286
251 237 135 91 102 244 268 260 189 207 234 255 255 227 191 174 183 180 173 171 170 166 162 160 159 155 151 147 141 131 127 126 121 104 93 72 358 349 324 306 295 290 291 294
222 239 146 160 202 198 192 230 228 220 244 253 284 314 33 156 169 178 184 177 171 167 165 161 156 151 145 143 146 142 135 123 113 96 74 6 324 323 313 299 293 293 293 295
196 231 216 193 186 206 199 205 210 221 232 215 246 278 35 96 133 158 172 170 165 161 156 151 148 145 146 150 148 143 136 125 119 100 20 316 309 304 298 294 296 302 302 300
175 207 218 176 192 210 221 219 223 243 279 258 239 238 123 122 136 150 156 156 150 145 142 142 143 146 147 147 145 142 134 125 117 95 321 308 306 305 301 301 306 308 302 296
185 224 226 216 181 167 195 205 209 214 226 241 239 249 210 192 180 170 161 153 144 141 142 143 145 146 143 142 140 132 125 123 124 217 284 292 294 297 300 302 301 297 293 292
184 238 254 262 48 148 204 202 200 212 227 239 251 263 260 209 187 171 158 149 143 143 144 145 146 140 136 133 128 123 125 137 156 264 278 275 280 289 292 292 292 290 288 286
190 241 265 261 210 226 259 241 219 219 231 244 262 270 287 94 134 145 153 154 154 151 149 144 138 134 135 135 132 133 159 184 202 263 271 274 279 282 283 285 286 287 285 283
177 207 222 248 216 208 248 226 226 226 221 221 243 256 17 134 149 155 156 153 150 147 144 141 136 133 130 129 130 152 185 220 257 265 269 272 273 277 279 282 285 284 283 282
182 197 221 230 191 233 234 193 212 228 240 229 236 230 151 138 111 95 129 141 139 137 136 134 130 125 122 123 138 156 214 262 265 268 271 272 273 276 278 280 280 280 279 281
293 193 204 196 227 262 247 200 175 198 256 236 236 194 115 102 84 66 84 115 123 121 119 119 120 125 130 145 158 174 259 270 272 273 274 276 278 279 281 281 280 281 283 285
309 278 203 187 210 237 227 123 109 119 268 278 153 131 129 121 143 192 120 100 100 102 103 109 112 119 138 163 153 220 267 276 277 276 278 282 282 281 281 279 280 282 283 283
165 191 204 208 225 250 171 153 130 174 232 71 99 131 141 153 162 133 116 106 107 109 113 117 125 140 170 172 188 256 269 271 272 278 282 283 280 278 278 279 280 282 283 285
174 178 194 196 222 240 160 157 186 189 138 130 129 133 127 111 104 110 112 116 119 121 128 133 140 175 211 233 250 264 268 270 278 284 283 281 279 280 284 282 282 281 284 288
188 190 190 195 206 171 155 158 130 122 137 140 134 123 125 128 127 124 124 127 130 137 142 143 161 225 262 264 257 265 270 277 283 283 281 280 281 279 279 280 284 285 284 284
195 138 183 216 170 154 146 124 130 130 129 124 122 124 129 133 134 133 134 137 143 146 147 151 191 258 271 273 272 268 276 281 282 282 282 282 283 283 281 280 279 282 283 284
165 154 188 233 157 131 180 179 156 136 120 114 111 116 125 129 134 138 142 149 150 147 152 173 232 260 271 279 282 281 282 285 283 280 279 281 280 282 284 280 275 282 273 280
151 164 179 205 178 169 177 165 147 142 140 132 125 117 117 126 133 133 138 139 138 149 176 236 258 268 277 284 284 283 283 282 281 282 281 280 281 282 282 287 289 282 283 293